Weather History for Annette Island, AK

Change the Weather History Date:

Saturday, January 19, 2013

  Actual Average Record
Temperature  
Mean Temperature 41 °F 37 °F  
Max Temperature 46 °F 42 °F 61 °F (1961)
Min Temperature 36 °F 32 °F 2 °F (2012)
Degree Days  
Heating Degree Days 24 28  
Month to date heating degree days 486 532  
Since 1 July heating degree days 3529 3443  
Cooling Degree Days 0    
Month to date cooling degree days 0  
Year to date cooling degree days 0  
Moisture  
Dew Point 38 °F    
Average Humidity 0    
Maximum Humidity 0    
Minimum Humidity 0    
Precipitation  
Precipitation 0.01 in 0.36 in 3.47 in (1988)
Month to date precipitation 4.83 6.70  
Year to date precipitation 4.83 6.70  
Snow  
Snow 0.00 in 0.20 in 8.00 in (1993)
Month to date snowfall T 4.8  
Since 1 July snowfall 11.4 16.5  
Snow Depth 0.00 in    
Sea Level Pressure  
Sea Level Pressure 30.27 in    
Wind  
Wind Speed 2 mph (ESE)    
Max Wind Speed 13 mph    
Max Gust Speed 17 mph    
Visibility 9 miles    
Events Rain    
T = Trace of Precipitation, MM = Missing Value Source: NWS Daily Summary

Daily Weather History Graph

Daily Weather History Graph

Search for Another Location

Airport:

Trip Planner

Search our weather history database for the weather conditions in past years. The results will help you decide how hot, cold, wet, or windy it might be!

Date:

Astronomy

Jan. 19, 2013 Rise Set
Actual Time 7:56 AM AKST 3:58 PM AKST
Civil Twilight 7:14 AM AKST 4:40 PM AKST
Nautical Twilight 6:29 AM AKST 5:25 PM AKST
Astronomical Twilight 5:46 AM AKST 6:08 PM AKST
Moon 10:39 AM AKST 1:23 AM AKST
Length of Visible Light 9h 25m
Length of Day
8h 01m
First Quarter, 58% of the Moon is Illuminated
Jan 19
First Quarter
Jan 26
Full
Feb 3
Last Quarter
Feb 9
New
Feb 17
First Quarter

Hourly Weather History & Observations

Time (AKST) Temp. Windchill Dew Point Humidity Pressure Visibility Wind Dir Wind Speed Gust Speed Precip Events Conditions
12:22 AM 35.6 °F - 33.8 °F 93% 30.27 in 10.0 mi Calm Calm - N/A   Overcast
12:53 AM 37.0 °F - 34.0 °F 89% 30.27 in 10.0 mi Calm Calm - N/A   Overcast
1:53 AM 37.9 °F - 35.1 °F 89% 30.28 in 10.0 mi Calm Calm - N/A   Overcast
3:53 AM 39.0 °F 35.7 °F 36.0 °F 89% 30.27 in 10.0 mi North 4.6 mph - N/A   Overcast
4:11 AM 39.2 °F 37.0 °F 35.6 °F 87% 30.26 in 8.0 mi NNE 3.5 mph - N/A   Overcast
4:18 AM 39.2 °F - 35.6 °F 87% 30.25 in 7.0 mi Calm Calm - N/A   Overcast
4:53 AM 37.9 °F - 37.0 °F 97% 30.26 in 7.0 mi Calm Calm - N/A   Overcast
5:26 AM 37.4 °F - 37.4 °F 100% 30.26 in 2.5 mi Calm Calm - 0.00 in Rain Light Rain
5:35 AM 39.2 °F - 37.4 °F 93% 30.26 in 4.0 mi Calm Calm - 0.01 in   Overcast
5:53 AM 39.0 °F - 37.0 °F 93% 30.26 in 9.0 mi Calm Calm - 0.01 in   Overcast
6:53 AM 39.0 °F - 37.9 °F 96% 30.26 in 8.0 mi Calm Calm - N/A   Overcast
8:09 AM 42.8 °F 38.0 °F 39.2 °F 87% 30.26 in 10.0 mi ESE 8.1 mph - N/A   Overcast
8:53 AM 44.1 °F 39.0 °F 39.9 °F 85% 30.28 in 10.0 mi ESE 9.2 mph - N/A   Overcast
9:10 AM 44.6 °F 39.2 °F 39.2 °F 81% 30.27 in 10.0 mi SE 10.4 mph - N/A   Overcast
9:39 AM 44.6 °F 39.7 °F 39.2 °F 81% 30.28 in 10.0 mi SE 9.2 mph - N/A   Overcast
9:53 AM 44.1 °F 38.6 °F 39.9 °F 85% 30.28 in 10.0 mi SE 10.4 mph - N/A   Overcast
10:53 AM 45.0 °F 39.7 °F 39.9 °F 82% 30.29 in 10.0 mi SE 10.4 mph - N/A   Overcast
11:53 AM 45.0 °F 41.8 °F 39.0 °F 80% 30.29 in 10.0 mi SE 5.8 mph - N/A   Overcast
12:53 PM 46.0 °F 44.8 °F 39.9 °F 79% 30.30 in 10.0 mi SSE 3.5 mph - N/A   Overcast
1:53 PM 46.0 °F 44.8 °F 39.0 °F 76% 30.28 in 10.0 mi SSE 3.5 mph - N/A   Overcast
2:53 PM 45.0 °F - 41.0 °F 86% 30.28 in 10.0 mi Calm Calm - N/A   Overcast
3:00 PM 44.6 °F - 41.0 °F 87% 30.28 in 10.0 mi Calm Calm - N/A   Overcast
3:53 PM 45.0 °F - 39.9 °F 82% 30.28 in 10.0 mi Calm Calm - N/A   Overcast
4:33 PM 44.6 °F 43.1 °F 39.2 °F 81% 30.26 in 10.0 mi NE 3.5 mph - N/A   Mostly Cloudy
4:53 PM 45.0 °F 43.5 °F 39.0 °F 80% 30.26 in 10.0 mi NE 3.5 mph - N/A   Mostly Cloudy
5:53 PM 42.1 °F - 39.0 °F 89% 30.25 in 10.0 mi Calm Calm - N/A   Scattered Clouds
6:53 PM 41.0 °F - 39.0 °F 93% 30.27 in 10.0 mi Calm Calm - N/A   Partly Cloudy
7:53 PM 42.1 °F 40.2 °F 39.9 °F 92% 30.28 in 10.0 mi NW 3.5 mph - N/A   Clear
8:53 PM 39.9 °F - 39.0 °F 97% 30.28 in 10.0 mi Calm Calm - N/A   Clear
9:53 PM 37.9 °F - 37.0 °F 97% 30.29 in 10.0 mi Calm Calm - N/A   Mostly Cloudy
10:53 PM 39.0 °F - 37.0 °F 93% 30.29 in 10.0 mi Calm Calm - N/A   Partly Cloudy
11:53 PM 36.0 °F - 35.1 °F 97% 30.30 in 10.0 mi Calm Calm - N/A   Clear